Flag for United Kingdom Weather past 2 weeks in Taunton, England, United Kingdom

Now
49 °F

Cool.


Feels Like: 49 °F
Forecast: 49 / 62 °F
Wind: 2 mph from North

Location: Dunkeswell Aerodrome

Current Time: Sep 4, 2015 at 5:59:24 AM

Latest Report: Sep 4, 2015 at 4:00 AM


Visibility: 25 mi

Pressure: 30.09 "Hg

Humidity: 90%

Dew point: 47 °F

Location of TauntonLocation

Historic Weather in Taunton — Graph

°F

Taunton temperature yesterday

Maximum temperature yesterday: 56 °F (at 4:00 PM)
Minimum temperature yesterday: 47 °F (at 2:00 AM)
Average temperature yesterday: 51 °F

Past Weeks' High & Low Weather Summary

 TemperatureHumidityPressure
High72 °F (Aug 22, 2:00 PM)100% (Aug 20, 3:00 AM)30.16 "Hg (Aug 20, 3:00 AM)
Low46 °F (Sep 2, 2:00 AM)58% (Sep 2, 2:00 PM)29.47 "Hg (Aug 24, 6:00 AM)
Average57 °F92%29.91 "Hg
* Reported Aug 20 3:00 AM — Sep 4 3:00 AM, Taunton, Weather by CustomWeather, © 2015

Note: Actual official high and low records may vary slightly from our data, if they occured in-between our weather recording intervals... More about our weather records

Advertising

Taunton weather history for previous 24 hours

 ConditionsComfort  
Time TempWeatherWind HumidityBarometerVisibility
3:00 AM
Fri, Sep 4
50 °FCool.1 mph86%30.09 "Hg31 mi
2:00 AM50 °FCool.2 mph87%30.09 "Hg31 mi
1:00 AM50 °FCool.1 mph87%30.09 "Hg31 mi
12:00 AM50 °FCool.6 mph83%30.09 "Hg31 mi
11:00 PM
Thu, Sep 3
51 °FCool.5 mph85%30.09 "Hg28 mi
9:00 PM51 °FCool.5 mph88%30.07 "Hg28 mi
8:00 PM52 °FCool.5 mph94%30.06 "Hg25 mi
7:00 PM52 °FCool.5 mph91%30.05 "Hg31 mi
6:00 PM52 °FCool.5 mph88%30.06 "Hg28 mi
5:00 PM54 °FCool.8 mph72%30.04 "Hg22 mi
4:00 PM56 °FCool.7 mph67%30.04 "Hg31 mi
3:00 PM54 °FCool.8 mph71%30.05 "Hg22 mi
2:00 PM53 °FCool.8 mph87%30.06 "Hg22 mi
1:00 PM53 °FCool.8 mph83%30.05 "Hg16 mi
12:00 PM53 °FCool.10 mph80%30.05 "Hg31 mi
11:00 AM53 °FCool.9 mph77%30.06 "Hg25 mi
10:00 AM53 °FCool.8 mph83%30.06 "Hg28 mi
9:00 AM51 °FCool.6 mph92%30.06 "Hg28 mi
8:00 AM49 °FCool.2 mph99%30.07 "Hg25 mi
7:00 AM49 °FCool.3 mph100%30.06 "Hg28 mi
6:00 AM49 °FCool.2 mph100%30.06 "Hg22 mi
Weather by CustomWeather, © 2015

See weather overviewHow to use our weather pages